User: anonymous   Login
Location: Unspecified
(0.0000°N, 0.0000°E)
Time: 08:43:34
(UTC+00:00)
Language:

OPTUS D3 - Orbit

View from above orbital plane
View from above orbital plane
View from above satellite
View from above satellite

Ground track
Ground track

The orbit data is extracted from the following two-line orbital elements,

1 35756U 09044B   14328.73149071 -.00000143  00000-0  00000+0 0  2196
2 35756 000.0591 034.4878 0002597 219.1527 229.3508 01.00271671 19292
Epoch (UTC): 24 November 2014 17:33:20
Eccentricity: 0.0002597
inclination: 0.0591°
perigee height: 35775 km
apogee height: 35797 km
right ascension of ascending node: 34.4878°
argument of perigee: 219.1527°
revolutions per day: 1.00271671
mean anomaly at epoch: 229.3508°
orbit number at epoch: 1929

The dashed part of the orbit path shows where the satellite is in the earth's shadow,  

DLR